RYR4472 LKMT-EGSS

Flight info

Callsign RYR4472
Flight time 2h 15m
Altitude 36000
Route UPLAV DCT BNO DCT VLM DCT RAPET DCT MASEK DCT ARPEG DCT NOGRO M40 RINIS
Aircraft B738/M-SDE2E3FGHIRWXY/LB1

Departure

Time 2026-04-26 07:22
Airport Leoš Janáček Airport Ostrava (LKMT)

Arrival

Time 2026-04-26 09:37
Airport London Stansted Airport (EGSS)
Time Latitude Longitude Altitude Speed Heading
2026-04-26 07:16 49.69564 18.11689 826 ft 13 kts 225°
2026-04-26 07:16 49.69493 18.11573 827 ft 14 kts 226°
2026-04-26 07:17 49.69425 18.11464 828 ft 13 kts 226°
2026-04-26 07:17 49.69363 18.11365 828 ft 12 kts 226°
2026-04-26 07:17 49.69300 18.11261 829 ft 14 kts 226°
2026-04-26 07:17 49.69226 18.11143 830 ft 16 kts 226°
2026-04-26 07:18 49.69144 18.11010 830 ft 18 kts 226°
2026-04-26 07:18 49.69053 18.10864 831 ft 18 kts 226°
2026-04-26 07:18 49.68967 18.10725 832 ft 17 kts 225°
2026-04-26 07:18 49.68887 18.10596 833 ft 16 kts 226°
2026-04-26 07:19 49.68800 18.10456 834 ft 19 kts 226°
2026-04-26 07:19 49.68697 18.10290 836 ft 22 kts 226°
2026-04-26 07:19 49.68594 18.10122 837 ft 20 kts 226°
2026-04-26 07:19 49.68497 18.09967 839 ft 19 kts 226°
2026-04-26 07:20 49.68409 18.09825 840 ft 17 kts 226°
2026-04-26 07:20 49.68344 18.09706 842 ft 12 kts 248°
2026-04-26 07:20 49.68371 18.09599 843 ft 10 kts 310°
2026-04-26 07:20 49.68425 18.09515 843 ft 12 kts 316°
2026-04-26 07:21 49.68497 18.09415 843 ft 14 kts 317°
2026-04-26 07:21 49.68566 18.09377 843 ft 10 kts 38°
2026-04-26 07:21 49.68618 18.09458 842 ft 15 kts 46°
2026-04-26 07:21 49.68822 18.09787 838 ft 75 kts 45°
2026-04-26 07:22 49.69336 18.10620 830 ft 134 kts 47°
2026-04-26 07:22 49.70075 18.11822 927 ft 169 kts 43°
2026-04-26 07:22 49.70873 18.13119 1618 ft 167 kts 41°
2026-04-26 07:22 49.71687 18.14383 2261 ft 170 kts 38°
2026-04-26 07:23 49.72529 18.15648 2774 ft 173 kts 38°
2026-04-26 07:23 49.73414 18.17021 3098 ft 186 kts 39°
2026-04-26 07:23 49.74334 18.18510 3411 ft 200 kts 40°
2026-04-26 07:23 49.75328 18.20131 3680 ft 217 kts 40°
2026-04-26 07:24 49.76346 18.21977 4034 ft 236 kts 51°
2026-04-26 07:24 49.76990 18.24465 4380 ft 262 kts 76°
2026-04-26 07:24 49.76847 18.27305 4939 ft 277 kts 102°
2026-04-26 07:24 49.75968 18.30037 5522 ft 289 kts 124°
2026-04-26 07:25 49.74556 18.32218 6094 ft 296 kts 144°
2026-04-26 07:25 49.72617 18.33371 6688 ft 300 kts 174°
2026-04-26 07:25 49.70568 18.33229 7271 ft 299 kts 197°
2026-04-26 07:25 49.68650 18.32080 7808 ft 296 kts 216°
2026-04-26 07:26 49.66993 18.30274 8411 ft 290 kts 232°
2026-04-26 07:26 49.65744 18.27965 9081 ft 282 kts 245°
2026-04-26 07:26 49.64648 18.25451 9788 ft 283 kts 243°
2026-04-26 07:26 49.63391 18.23073 10430 ft 291 kts 238°
2026-04-26 07:27 49.61988 18.20762 10750 ft 309 kts 236°
2026-04-26 07:27 49.60451 18.18345 11132 ft 322 kts 236°
2026-04-26 07:27 49.58843 18.15807 11512 ft 335 kts 236°
2026-04-26 07:27 49.57233 18.13252 12121 ft 340 kts 236°
2026-04-26 07:28 49.55576 18.10609 12783 ft 343 kts 237°
2026-04-26 07:28 49.53935 18.07989 13482 ft 345 kts 237°
2026-04-26 07:28 49.52267 18.05319 14155 ft 349 kts 237°
2026-04-26 07:28 49.50580 18.02619 14851 ft 352 kts 237°
2026-04-26 07:29 49.48897 17.99866 15441 ft 356 kts 239°
2026-04-26 07:29 49.47333 17.96968 16145 ft 351 kts 245°
2026-04-26 07:29 49.45996 17.93851 16681 ft 351 kts 251°
2026-04-26 07:29 49.44835 17.90592 17343 ft 349 kts 253°
2026-04-26 07:30 49.43749 17.87268 17981 ft 351 kts 255°
2026-04-26 07:30 49.42666 17.83875 18495 ft 357 kts 254°
2026-04-26 07:30 49.41568 17.80461 19111 ft 360 kts 254°
2026-04-26 07:30 49.40443 17.77028 19676 ft 364 kts 253°
2026-04-26 07:31 49.39299 17.73587 20276 ft 366 kts 253°
2026-04-26 07:31 49.38132 17.70109 20793 ft 371 kts 253°
2026-04-26 07:31 49.36950 17.66597 21273 ft 376 kts 252°
2026-04-26 07:31 49.35741 17.63025 21944 ft 375 kts 252°
2026-04-26 07:32 49.34539 17.59467 22300 ft 383 kts 252°
2026-04-26 07:32 49.33320 17.55849 22957 ft 381 kts 253°
2026-04-26 07:32 49.32229 17.52191 23421 ft 379 kts 257°
2026-04-26 07:32 49.31321 17.48439 23878 ft 380 kts 260°
2026-04-26 07:33 49.30498 17.44579 24418 ft 380 kts 262°
2026-04-26 07:33 49.29732 17.40754 24831 ft 383 kts 262°
2026-04-26 07:33 49.28955 17.36811 25315 ft 385 kts 262°
2026-04-26 07:33 49.28182 17.32902 25737 ft 389 kts 261°
2026-04-26 07:34 49.27387 17.28918 26124 ft 394 kts 261°
2026-04-26 07:34 49.26580 17.24907 26549 ft 397 kts 261°
2026-04-26 07:34 49.25765 17.20901 26976 ft 400 kts 260°
2026-04-26 07:34 49.24925 17.16796 27417 ft 403 kts 260°
2026-04-26 07:35 49.24086 17.12721 27825 ft 406 kts 260°
2026-04-26 07:35 49.23235 17.08599 28196 ft 409 kts 260°
2026-04-26 07:35 49.22378 17.04461 28632 ft 411 kts 259°
2026-04-26 07:35 49.21511 17.00293 29046 ft 413 kts 259°
2026-04-26 07:36 49.20647 16.96137 29384 ft 416 kts 259°
2026-04-26 07:36 49.19764 16.91906 29760 ft 418 kts 259°
2026-04-26 07:36 49.18882 16.87680 30056 ft 422 kts 259°
2026-04-26 07:36 49.17984 16.83393 30432 ft 424 kts 259°
2026-04-26 07:37 49.17136 16.79104 30857 ft 422 kts 262°
2026-04-26 07:37 49.16537 16.74797 31499 ft 411 kts 268°
2026-04-26 07:37 49.16265 16.70485 32050 ft 403 kts 274°
2026-04-26 07:37 49.16320 16.66260 32408 ft 399 kts 280°
2026-04-26 07:38 49.16708 16.62078 32798 ft 395 kts 286°
2026-04-26 07:38 49.17422 16.58025 33153 ft 392 kts 292°
2026-04-26 07:38 49.18445 16.54183 33490 ft 390 kts 299°
2026-04-26 07:38 49.19758 16.50604 33850 ft 387 kts 305°
2026-04-26 07:39 49.21285 16.47250 34226 ft 385 kts 308°
2026-04-26 07:39 49.22869 16.43930 34579 ft 385 kts 308°
2026-04-26 07:39 49.24393 16.40584 34937 ft 385 kts 306°
2026-04-26 07:39 49.25836 16.37183 35360 ft 383 kts 304°
2026-04-26 07:40 49.27216 16.33710 35725 ft 382 kts 302°
2026-04-26 07:40 49.28555 16.30158 36056 ft 382 kts 301°
2026-04-26 07:40 49.29870 16.26540 36181 ft 385 kts 301°
2026-04-26 07:41 49.32419 16.19303 36166 ft 385 kts 300°
2026-04-26 07:41 49.34933 16.12026 36179 ft 383 kts 300°
2026-04-26 07:42 49.37412 16.04809 36176 ft 383 kts 300°
2026-04-26 07:42 49.39895 15.97562 36176 ft 385 kts 300°
2026-04-26 07:43 49.42376 15.90299 36186 ft 384 kts 300°
2026-04-26 07:43 49.44867 15.82988 36189 ft 385 kts 300°
2026-04-26 07:44 49.47349 15.75678 36192 ft 387 kts 300°
2026-04-26 07:44 49.49841 15.68323 36189 ft 386 kts 300°
2026-04-26 07:45 49.52313 15.61003 36191 ft 386 kts 300°
2026-04-26 07:45 49.54785 15.53666 36192 ft 388 kts 300°
2026-04-26 07:46 49.57257 15.46302 36188 ft 386 kts 299°
2026-04-26 07:46 49.59721 15.38940 36194 ft 388 kts 300°
2026-04-26 07:47 49.62178 15.31584 36197 ft 388 kts 299°
2026-04-26 07:47 49.64629 15.24220 36195 ft 389 kts 299°
2026-04-26 07:48 49.67105 15.16761 36200 ft 390 kts 298°
2026-04-26 07:48 49.69539 15.09329 36217 ft 389 kts 297°
2026-04-26 07:49 49.71469 15.01533 36227 ft 390 kts 290°
2026-04-26 07:49 49.73021 14.93508 36229 ft 392 kts 288°
2026-04-26 07:50 49.75277 14.81382 36224 ft 394 kts 289°
2026-04-26 07:50 49.76790 14.73297 36225 ft 393 kts 289°
2026-04-26 07:51 49.78312 14.65176 36228 ft 394 kts 289°
2026-04-26 07:51 49.79825 14.57089 36232 ft 393 kts 289°
2026-04-26 07:52 49.81345 14.48931 36239 ft 394 kts 289°
2026-04-26 07:52 49.82853 14.40809 36236 ft 394 kts 288°
2026-04-26 07:53 49.84360 14.32655 36238 ft 396 kts 288°
2026-04-26 07:53 49.85870 14.24450 36238 ft 396 kts 288°
2026-04-26 07:54 49.87365 14.16287 36248 ft 396 kts 288°
2026-04-26 07:54 49.88863 14.08065 36244 ft 398 kts 288°
2026-04-26 07:55 49.90350 13.99871 36248 ft 397 kts 287°
2026-04-26 07:55 49.91840 13.91631 36251 ft 398 kts 287°
2026-04-26 07:56 49.93316 13.83430 36243 ft 398 kts 287°
2026-04-26 07:56 49.94791 13.75192 36242 ft 398 kts 287°
2026-04-26 07:57 49.96260 13.66952 36238 ft 398 kts 287°
2026-04-26 07:57 49.97733 13.58646 36241 ft 399 kts 287°
2026-04-26 07:58 49.99203 13.50326 36238 ft 399 kts 287°
2026-04-26 07:58 50.00655 13.42065 36243 ft 399 kts 287°
2026-04-26 07:59 50.02117 13.33711 36245 ft 400 kts 286°
2026-04-26 07:59 50.03572 13.25353 36247 ft 400 kts 286°
2026-04-26 08:00 50.05014 13.17031 36244 ft 400 kts 286°
2026-04-26 08:00 50.06461 13.08643 36243 ft 402 kts 286°
2026-04-26 08:01 50.07894 13.00296 36239 ft 401 kts 286°
2026-04-26 08:01 50.09318 12.91961 36241 ft 402 kts 286°
2026-04-26 08:02 50.10749 12.83549 36239 ft 402 kts 286°
2026-04-26 08:02 50.12174 12.75127 36240 ft 402 kts 286°
2026-04-26 08:03 50.13599 12.66664 36236 ft 404 kts 285°
2026-04-26 08:03 50.15017 12.58203 36233 ft 403 kts 285°
2026-04-26 08:04 50.16430 12.49734 36226 ft 404 kts 285°
2026-04-26 08:04 50.17831 12.41287 36230 ft 403 kts 286°
2026-04-26 08:05 50.19236 12.32820 36229 ft 403 kts 286°
2026-04-26 08:05 50.20885 12.24470 36234 ft 403 kts 289°
2026-04-26 08:06 50.22673 12.16195 36233 ft 404 kts 289°
2026-04-26 08:06 50.24464 12.07845 36235 ft 406 kts 289°
2026-04-26 08:07 50.26222 11.99497 36245 ft 405 kts 288°
2026-04-26 08:07 50.27962 11.91129 36249 ft 406 kts 288°
2026-04-26 08:08 50.29686 11.82767 36244 ft 406 kts 288°
2026-04-26 08:08 50.31410 11.74356 36240 ft 406 kts 288°
2026-04-26 08:09 50.33125 11.65948 36240 ft 406 kts 288°
2026-04-26 08:09 50.34829 11.57559 36023 ft 405 kts 288°
2026-04-26 08:10 50.35676 11.53379 36229 ft 404 kts 288°
2026-04-26 08:10 50.36521 11.49194 36239 ft 408 kts 288°
2026-04-26 08:10 50.38238 11.40671 36242 ft 409 kts 288°
2026-04-26 08:11 50.39932 11.32225 36242 ft 408 kts 287°
2026-04-26 08:11 50.41625 11.23748 36241 ft 408 kts 287°
2026-04-26 08:12 50.43308 11.15284 36241 ft 409 kts 287°
2026-04-26 08:12 50.45007 11.06698 36236 ft 408 kts 287°
2026-04-26 08:13 50.46680 10.98212 36236 ft 409 kts 287°
2026-04-26 08:13 50.48351 10.89698 36242 ft 409 kts 287°
2026-04-26 08:14 50.50017 10.81166 36249 ft 410 kts 287°
2026-04-26 08:14 50.51680 10.72619 36254 ft 411 kts 287°
2026-04-26 08:15 50.53331 10.64094 36252 ft 410 kts 287°
2026-04-26 08:15 50.54984 10.55518 36252 ft 410 kts 287°
2026-04-26 08:16 50.56622 10.46981 36251 ft 410 kts 287°
2026-04-26 08:16 50.58263 10.38390 36250 ft 412 kts 287°
2026-04-26 08:17 50.59912 10.29721 36249 ft 412 kts 285°
2026-04-26 08:17 50.61536 10.21138 36248 ft 411 kts 285°
2026-04-26 08:18 50.63167 10.12485 36250 ft 413 kts 285°
2026-04-26 08:18 50.64793 10.03816 36250 ft 412 kts 285°
2026-04-26 08:19 50.66413 9.95133 36253 ft 413 kts 285°
2026-04-26 08:19 50.68030 9.86429 36257 ft 412 kts 285°
2026-04-26 08:20 50.69640 9.77726 36261 ft 413 kts 285°
2026-04-26 08:20 50.71233 9.69068 36263 ft 414 kts 285°
2026-04-26 08:21 50.72829 9.60357 36263 ft 414 kts 285°
2026-04-26 08:21 50.74619 9.51736 36266 ft 415 kts 289°
2026-04-26 08:22 50.76616 9.43185 36266 ft 415 kts 290°
2026-04-26 08:22 50.78605 9.34684 36268 ft 415 kts 289°
2026-04-26 08:23 50.80568 9.26158 36273 ft 415 kts 289°
2026-04-26 08:23 50.82531 9.17510 36271 ft 416 kts 288°
2026-04-26 08:24 50.84464 9.08920 36272 ft 416 kts 288°
2026-04-26 08:24 50.86393 9.00297 36269 ft 417 kts 288°
2026-04-26 08:25 50.88316 8.91656 36269 ft 417 kts 288°
2026-04-26 08:25 50.90225 8.83041 36270 ft 415 kts 289°
2026-04-26 08:26 50.92139 8.74366 36275 ft 416 kts 288°
2026-04-26 08:26 50.94029 8.65765 36275 ft 416 kts 289°
2026-04-26 08:27 50.95920 8.57125 36270 ft 416 kts 288°
2026-04-26 08:27 50.97819 8.48409 36267 ft 417 kts 288°
2026-04-26 08:28 50.99693 8.39774 36265 ft 417 kts 289°
2026-04-26 08:28 51.01577 8.31055 36264 ft 416 kts 288°
2026-04-26 08:29 51.03429 8.22346 36260 ft 417 kts 287°
2026-04-26 08:29 51.05259 8.13593 36261 ft 417 kts 287°
2026-04-26 08:30 51.07076 8.04853 36261 ft 416 kts 288°
2026-04-26 08:30 51.08891 7.96101 36260 ft 417 kts 288°
2026-04-26 08:31 51.10671 7.87493 36263 ft 416 kts 287°
2026-04-26 08:31 51.12474 7.78735 36265 ft 416 kts 287°
2026-04-26 08:32 51.14259 7.70035 36275 ft 416 kts 288°
2026-04-26 08:32 51.16046 7.61279 36276 ft 416 kts 288°
2026-04-26 08:33 51.17833 7.52487 36276 ft 416 kts 288°
2026-04-26 08:33 51.19609 7.43704 36280 ft 416 kts 288°
2026-04-26 08:34 51.21366 7.34977 36281 ft 415 kts 287°
2026-04-26 08:34 51.23117 7.26247 36285 ft 414 kts 287°
2026-04-26 08:35 51.24845 7.17587 36286 ft 413 kts 287°
2026-04-26 08:35 51.26593 7.08787 36293 ft 413 kts 287°
2026-04-26 08:36 51.28314 7.00077 36299 ft 414 kts 287°
2026-04-26 08:36 51.30039 6.91311 36312 ft 413 kts 287°
2026-04-26 08:37 51.31762 6.82516 36316 ft 413 kts 287°
2026-04-26 08:37 51.33472 6.73750 36313 ft 412 kts 287°
2026-04-26 08:38 51.35170 6.65007 36316 ft 412 kts 287°
2026-04-26 08:38 51.36861 6.56263 36316 ft 412 kts 287°
2026-04-26 08:39 51.38557 6.47450 36318 ft 412 kts 287°
2026-04-26 08:39 51.40227 6.38739 36319 ft 410 kts 287°
2026-04-26 08:40 51.41895 6.29996 36318 ft 411 kts 287°
2026-04-26 08:40 51.43552 6.21265 36319 ft 411 kts 287°
2026-04-26 08:41 51.45206 6.12509 36316 ft 410 kts 287°
2026-04-26 08:41 51.46849 6.03771 36313 ft 410 kts 287°
2026-04-26 08:42 51.48486 5.95025 36314 ft 411 kts 287°
2026-04-26 08:42 51.50119 5.86259 36317 ft 410 kts 287°
2026-04-26 08:43 51.51740 5.77518 36314 ft 410 kts 287°
2026-04-26 08:43 51.53354 5.68770 36316 ft 409 kts 287°
2026-04-26 08:44 51.54975 5.59947 36320 ft 409 kts 287°
2026-04-26 08:44 51.56582 5.51158 36324 ft 409 kts 287°
2026-04-26 08:45 51.58179 5.42377 36325 ft 409 kts 287°
2026-04-26 08:45 51.59757 5.33669 36328 ft 409 kts 286°
2026-04-26 08:46 51.61346 5.24845 36329 ft 409 kts 286°
2026-04-26 08:46 51.62922 5.16058 36332 ft 409 kts 286°
2026-04-26 08:47 51.64485 5.07304 36333 ft 409 kts 286°
2026-04-26 08:47 51.66043 4.98533 36335 ft 408 kts 286°
2026-04-26 08:48 51.67591 4.89771 36338 ft 408 kts 286°
2026-04-26 08:48 51.69138 4.80969 36334 ft 408 kts 286°
2026-04-26 08:49 51.70671 4.72210 36334 ft 407 kts 286°
2026-04-26 08:49 51.72200 4.63425 36332 ft 406 kts 286°
2026-04-26 08:50 51.73730 4.54601 36333 ft 406 kts 286°
2026-04-26 08:50 51.75236 4.45862 36326 ft 406 kts 286°
2026-04-26 08:51 51.77466 4.32850 36320 ft 405 kts 285°
2026-04-26 08:52 51.78960 4.24081 36320 ft 404 kts 285°
2026-04-26 08:52 51.80437 4.15364 36314 ft 405 kts 286°
2026-04-26 08:53 51.81917 4.06583 36318 ft 404 kts 286°
2026-04-26 08:53 51.83389 3.97813 36316 ft 404 kts 286°
2026-04-26 08:54 51.84849 3.89065 36289 ft 402 kts 286°
2026-04-26 08:54 51.85565 3.84754 36040 ft 396 kts 286°
2026-04-26 08:54 51.86280 3.80440 35624 ft 393 kts 286°
2026-04-26 08:54 51.86977 3.76228 35203 ft 390 kts 286°
2026-04-26 08:55 51.87669 3.72032 34733 ft 388 kts 286°
2026-04-26 08:55 51.88358 3.67838 34210 ft 385 kts 286°
2026-04-26 08:55 51.89040 3.63686 33722 ft 382 kts 286°
2026-04-26 08:55 51.89713 3.59575 33243 ft 378 kts 287°
2026-04-26 08:56 51.90379 3.55498 32769 ft 375 kts 287°
2026-04-26 08:56 51.91038 3.51454 32300 ft 371 kts 287°
2026-04-26 08:56 51.91696 3.47411 31829 ft 368 kts 287°
2026-04-26 08:56 51.92331 3.43495 31365 ft 364 kts 287°
2026-04-26 08:57 51.92969 3.39551 30906 ft 361 kts 287°
2026-04-26 08:57 51.93598 3.35655 30447 ft 357 kts 287°
2026-04-26 08:57 51.94200 3.31916 30005 ft 354 kts 286°
2026-04-26 08:57 51.94819 3.28071 29555 ft 350 kts 286°
2026-04-26 08:58 51.95423 3.24303 29109 ft 346 kts 286°
2026-04-26 08:58 51.95978 3.20513 28666 ft 348 kts 282°
2026-04-26 08:58 51.96312 3.16608 28332 ft 351 kts 275°
2026-04-26 08:59 51.96117 3.08738 28334 ft 356 kts 266°
2026-04-26 08:59 51.95567 3.00775 28335 ft 355 kts 265°
2026-04-26 09:00 51.95000 2.92839 28333 ft 355 kts 266°
2026-04-26 09:00 51.94457 2.84945 28333 ft 354 kts 266°
2026-04-26 09:00 51.94189 2.80978 28024 ft 356 kts 266°
2026-04-26 09:01 51.93922 2.77025 27442 ft 355 kts 266°
2026-04-26 09:01 51.93652 2.73056 26971 ft 352 kts 266°
2026-04-26 09:01 51.93386 2.69145 26519 ft 348 kts 266°
2026-04-26 09:01 51.93124 2.65306 26075 ft 344 kts 266°
2026-04-26 09:02 51.92864 2.61494 25650 ft 340 kts 266°
2026-04-26 09:02 51.92607 2.57747 25221 ft 336 kts 266°
2026-04-26 09:02 51.92348 2.53974 24794 ft 333 kts 266°
2026-04-26 09:02 51.92096 2.50322 24374 ft 329 kts 265°
2026-04-26 09:03 51.91843 2.46643 23954 ft 326 kts 265°
2026-04-26 09:03 51.91592 2.43034 23543 ft 323 kts 265°
2026-04-26 09:03 51.91341 2.39442 23146 ft 322 kts 265°
2026-04-26 09:03 51.91088 2.35832 22728 ft 327 kts 265°
2026-04-26 09:04 51.90847 2.32394 22372 ft 325 kts 265°
2026-04-26 09:04 51.90670 2.28794 22322 ft 319 kts 268°
2026-04-26 09:04 51.90582 2.25209 22084 ft 325 kts 269°
2026-04-26 09:04 51.90522 2.21531 21831 ft 323 kts 269°
2026-04-26 09:05 51.90464 2.17936 21583 ft 320 kts 269°
2026-04-26 09:05 51.90398 2.14375 21261 ft 317 kts 269°
2026-04-26 09:05 51.90326 2.10838 20858 ft 314 kts 269°
2026-04-26 09:05 51.90247 2.07312 20464 ft 311 kts 269°
2026-04-26 09:06 51.90166 2.03855 20055 ft 309 kts 269°
2026-04-26 09:06 51.90081 2.00378 19664 ft 306 kts 269°
2026-04-26 09:06 51.89996 1.96989 19272 ft 303 kts 269°
2026-04-26 09:06 51.89909 1.93597 18890 ft 307 kts 269°
2026-04-26 09:07 51.89928 1.90147 18478 ft 310 kts 276°
2026-04-26 09:07 51.90399 1.86773 18316 ft 302 kts 292°
2026-04-26 09:07 51.91293 1.83689 18320 ft 308 kts 297°
2026-04-26 09:07 51.92314 1.80628 18314 ft 309 kts 299°
2026-04-26 09:08 51.93350 1.77605 18326 ft 307 kts 299°
2026-04-26 09:08 51.94379 1.74578 18326 ft 307 kts 298°
2026-04-26 09:08 51.95389 1.71569 18222 ft 305 kts 298°
2026-04-26 09:08 51.96386 1.68562 17901 ft 300 kts 298°
2026-04-26 09:09 51.97352 1.65627 17532 ft 297 kts 298°
2026-04-26 09:09 51.98312 1.62701 17152 ft 295 kts 298°
2026-04-26 09:09 51.99280 1.59743 16764 ft 296 kts 298°
2026-04-26 09:09 52.00247 1.56790 16385 ft 301 kts 298°
2026-04-26 09:10 52.01227 1.53795 15987 ft 299 kts 298°
2026-04-26 09:10 52.02192 1.50842 15599 ft 296 kts 298°
2026-04-26 09:10 52.03140 1.47937 15215 ft 292 kts 298°
2026-04-26 09:10 52.04089 1.45023 14841 ft 289 kts 298°
2026-04-26 09:11 52.05020 1.42166 14475 ft 289 kts 298°
2026-04-26 09:11 52.05969 1.39250 14093 ft 295 kts 298°
2026-04-26 09:11 52.06918 1.36331 13709 ft 292 kts 298°
2026-04-26 09:11 52.07856 1.33444 13328 ft 289 kts 297°
2026-04-26 09:12 52.08794 1.30547 12957 ft 286 kts 297°
2026-04-26 09:12 52.09716 1.27699 12630 ft 282 kts 297°
2026-04-26 09:12 52.10611 1.24930 12495 ft 280 kts 297°
2026-04-26 09:12 52.11425 1.21968 12414 ft 289 kts 287°
2026-04-26 09:13 52.11641 1.18744 12326 ft 289 kts 263°
2026-04-26 09:13 52.11203 1.15607 12337 ft 291 kts 254°
2026-04-26 09:13 52.10600 1.12460 12335 ft 290 kts 253°
2026-04-26 09:13 52.09999 1.09324 12337 ft 291 kts 254°
2026-04-26 09:14 52.09433 1.06173 12334 ft 290 kts 255°
2026-04-26 09:14 52.08898 1.03037 12332 ft 290 kts 255°
2026-04-26 09:14 52.08369 0.99876 12297 ft 288 kts 255°
2026-04-26 09:14 52.07851 0.96764 12045 ft 283 kts 255°
2026-04-26 09:15 52.07342 0.93718 11700 ft 280 kts 255°
2026-04-26 09:15 52.06825 0.90631 11341 ft 285 kts 255°
2026-04-26 09:15 52.06303 0.87517 10962 ft 286 kts 255°
2026-04-26 09:15 52.05784 0.84433 10594 ft 284 kts 255°
2026-04-26 09:16 52.05267 0.81373 10270 ft 280 kts 255°
2026-04-26 09:16 52.04762 0.78390 10041 ft 273 kts 255°
2026-04-26 09:16 52.04248 0.75381 9665 ft 272 kts 255°
2026-04-26 09:16 52.03747 0.72457 9330 ft 271 kts 255°
2026-04-26 09:17 52.03248 0.69537 9141 ft 262 kts 255°
2026-04-26 09:17 52.02770 0.66747 8940 ft 256 kts 255°
2026-04-26 09:17 52.02297 0.63988 8660 ft 253 kts 255°
2026-04-26 09:17 52.01827 0.61232 8374 ft 251 kts 256°
2026-04-26 09:18 52.01543 0.58522 8307 ft 245 kts 270°
2026-04-26 09:18 52.01902 0.55873 8316 ft 248 kts 301°
2026-04-26 09:18 52.03079 0.53875 8320 ft 247 kts 330°
2026-04-26 09:18 52.04656 0.52892 8321 ft 247 kts 349°
2026-04-26 09:19 52.06363 0.52861 8307 ft 246 kts 15°
2026-04-26 09:19 52.07861 0.54189 8318 ft 248 kts 45°
2026-04-26 09:19 52.08822 0.56498 8321 ft 248 kts 68°
2026-04-26 09:19 52.09215 0.59190 8316 ft 248 kts 85°
2026-04-26 09:20 52.09293 0.61996 8312 ft 249 kts 88°
2026-04-26 09:20 52.09362 0.64802 8318 ft 249 kts 87°
2026-04-26 09:20 52.09455 0.67622 8314 ft 249 kts 86°
2026-04-26 09:20 52.09561 0.70435 8317 ft 249 kts 86°
2026-04-26 09:21 52.09671 0.73199 8319 ft 249 kts 86°
2026-04-26 09:21 52.09751 0.76036 8321 ft 249 kts 91°
2026-04-26 09:21 52.09440 0.78782 8314 ft 250 kts 116°
2026-04-26 09:21 52.08320 0.80909 8326 ft 252 kts 148°
2026-04-26 09:22 52.06685 0.81854 8323 ft 252 kts 174°
2026-04-26 09:22 52.04957 0.81736 8317 ft 251 kts 194°
2026-04-26 09:22 52.03406 0.80495 8313 ft 251 kts 224°
2026-04-26 09:22 52.02465 0.78169 8319 ft 251 kts 252°
2026-04-26 09:23 52.02162 0.75382 8318 ft 249 kts 267°
2026-04-26 09:23 52.02074 0.72581 8308 ft 249 kts 268°
2026-04-26 09:23 52.01991 0.69776 8309 ft 249 kts 268°
2026-04-26 09:23 52.01892 0.66973 8308 ft 249 kts 267°
2026-04-26 09:24 52.01782 0.64174 8311 ft 249 kts 267°
2026-04-26 09:24 52.01671 0.61414 8306 ft 248 kts 267°
2026-04-26 09:24 52.01549 0.58612 8279 ft 246 kts 266°
2026-04-26 09:24 52.01410 0.55859 8019 ft 244 kts 266°
2026-04-26 09:25 52.01263 0.53105 7675 ft 245 kts 266°
2026-04-26 09:25 52.01118 0.50374 7294 ft 248 kts 266°
2026-04-26 09:25 52.00971 0.47541 6718 ft 258 kts 266°
2026-04-26 09:25 52.00819 0.44626 6314 ft 259 kts 266°
2026-04-26 09:26 52.00682 0.41807 6303 ft 245 kts 267°
2026-04-26 09:26 52.00564 0.39057 6205 ft 245 kts 267°
2026-04-26 09:26 52.00453 0.36291 5995 ft 244 kts 267°
2026-04-26 09:26 52.00344 0.33587 5970 ft 242 kts 266°
2026-04-26 09:27 52.00231 0.30834 5968 ft 243 kts 266°
2026-04-26 09:27 52.00055 0.28102 5961 ft 242 kts 257°
2026-04-26 09:27 51.99321 0.25670 5966 ft 242 kts 227°
2026-04-26 09:27 51.98090 0.23844 5970 ft 243 kts 218°
2026-04-26 09:28 51.96775 0.22112 5963 ft 242 kts 220°
2026-04-26 09:28 51.95486 0.20294 5641 ft 249 kts 221°
2026-04-26 09:28 51.94204 0.18378 5219 ft 253 kts 223°
2026-04-26 09:28 51.92930 0.16433 4884 ft 251 kts 223°
2026-04-26 09:29 51.91689 0.14536 4531 ft 240 kts 223°
2026-04-26 09:29 51.90506 0.12733 4195 ft 229 kts 222°
2026-04-26 09:29 51.89358 0.10987 3885 ft 223 kts 222°
2026-04-26 09:29 51.88241 0.09291 3574 ft 220 kts 222°
2026-04-26 09:30 51.87128 0.07601 3267 ft 217 kts 222°
2026-04-26 09:30 51.86044 0.05955 2988 ft 213 kts 222°
2026-04-26 09:30 51.85002 0.04372 2951 ft 197 kts 222°
2026-04-26 09:30 51.84043 0.02925 2961 ft 181 kts 222°
2026-04-26 09:31 51.83133 0.01551 2973 ft 184 kts 221°
2026-04-26 09:31 51.82172 0.00103 2963 ft 190 kts 221°
2026-04-26 09:31 51.81202 -0.01361 2964 ft 192 kts 221°
2026-04-26 09:31 51.80152 -0.02674 2959 ft 190 kts 201°
2026-04-26 09:32 51.78869 -0.03002 2964 ft 186 kts 172°
2026-04-26 09:32 51.77626 -0.02480 2963 ft 184 kts 155°
2026-04-26 09:32 51.76567 -0.01357 2964 ft 183 kts 130°
2026-04-26 09:32 51.75940 0.00394 2967 ft 180 kts 107°
2026-04-26 09:33 51.75741 0.02352 2961 ft 181 kts 89°
2026-04-26 09:33 51.76024 0.04316 2918 ft 181 kts 62°
2026-04-26 09:33 51.76795 0.05917 2883 ft 182 kts 47°
2026-04-26 09:33 51.77698 0.07362 2810 ft 183 kts 45°
2026-04-26 09:34 51.78621 0.08758 2629 ft 179 kts 44°
2026-04-26 09:34 51.79494 0.10053 2491 ft 161 kts 44°
2026-04-26 09:34 51.80302 0.11254 2353 ft 155 kts 44°
2026-04-26 09:34 51.81066 0.12392 2175 ft 145 kts 45°
2026-04-26 09:35 51.81817 0.13513 1977 ft 150 kts 46°
2026-04-26 09:35 51.82576 0.14644 1731 ft 143 kts 45°
2026-04-26 09:35 51.83314 0.15743 1562 ft 149 kts 46°
2026-04-26 09:35 51.84065 0.16862 1336 ft 143 kts 45°
2026-04-26 09:36 51.84797 0.17948 1162 ft 143 kts 44°
2026-04-26 09:36 51.85541 0.19035 981 ft 147 kts 44°
2026-04-26 09:36 51.86306 0.20184 774 ft 148 kts 45°
2026-04-26 09:36 51.87058 0.21311 526 ft 151 kts 45°
2026-04-26 09:37 51.87816 0.22448 351 ft 146 kts 46°
2026-04-26 09:37 51.88462 0.23422 342 ft 96 kts 44°
2026-04-26 09:37 51.88841 0.23993 339 ft 58 kts 44°
2026-04-26 09:37 51.89025 0.24282 340 ft 19 kts 53°
2026-04-26 09:38 51.89073 0.24422 341 ft 16 kts 65°
2026-04-26 09:38 51.89121 0.24611 342 ft 18 kts 69°
2026-04-26 09:38 51.89163 0.24783 343 ft 9 kts 68°
2026-04-26 09:38 51.89169 0.24815 343 ft 0 kts 79°
2026-04-26 09:39 51.89170 0.24824 343 ft 4 kts 84°
2026-04-26 09:39 51.89156 0.24913 343 ft 9 kts 70°
2026-04-26 09:39 51.89194 0.25006 344 ft 9 kts 45°
2026-04-26 09:40 51.89225 0.25074 345 ft 6 kts 56°
2026-04-26 09:40 51.89244 0.25122 345 ft 4 kts 66°
2026-04-26 09:40 51.89213 0.25219 345 ft 14 kts 135°
2026-04-26 09:40 51.89152 0.25326 344 ft 12 kts 133°
2026-04-26 09:41 51.89102 0.25412 343 ft 9 kts 132°
2026-04-26 09:41 51.89075 0.25476 343 ft 5 kts 77°
2026-04-26 09:41 51.89103 0.25528 343 ft 4 kts 43°
2026-04-26 09:41 51.89118 0.25550 344 ft 1 kts 43°
2026-04-26 09:42 51.89125 0.25560 344 ft 1 kts 43°
2026-04-26 09:42 51.89127 0.25564 344 ft 0 kts 43°